This is the latest recevied weather packets stored in our database for station/object N0KWA. If no packets are shown the sender has not sent any weather packets the latest 10 day(s).
| Time | Temp. | Humidity | Pressure | Rain* | Wind** | Luminosity | Snow |
|---|---|---|---|---|---|---|---|
| 1778199305 | 22.22° C | 91% | 1015.8 hPa | 0 mm | - | 0 W/m² | - |
| 1778199002 | 22.78° C | 91% | 1015.8 hPa | 0 mm | - | 0 W/m² | - |
| 1778198697 | 22.78° C | 91% | 1015.8 hPa | 0 mm | - | 1 W/m² | - |
| 1778198395 | 22.78° C | 90% | 1015.8 hPa | 0 mm | - | 1 W/m² | - |
| 1778198091 | 22.78° C | 90% | 1015.8 hPa | 0 mm | - | 3 W/m² | - |
| 1778197789 | 22.78° C | 89% | 1015.9 hPa | 0 mm | - | 2 W/m² | - |
| 1778197485 | 22.78° C | 89% | 1015.9 hPa | 0 mm | - | 3 W/m² | - |
| 1778197182 | 22.78° C | 88% | 1015.9 hPa | 0 mm | - | 3 W/m² | - |
| 1778196878 | 23.33° C | 88% | 1015.8 hPa | 0 mm | - | 6 W/m² | - |
| 1778196577 | 23.33° C | 88% | 1015.8 hPa | 0 mm | - | 8 W/m² | - |
| 1778196272 | 23.33° C | 88% | 1015.7 hPa | 0 mm | - | 7 W/m² | - |
| 1778195970 | 23.33° C | 89% | 1015.6 hPa | 0 mm | - | 7 W/m² | - |
| 1778195661 | 23.33° C | 88% | 1015.7 hPa | 0 mm | - | 6 W/m² | - |
| 1778195357 | 23.33° C | 88% | 1015.9 hPa | 0 mm | - | 6 W/m² | - |
| 1778195055 | 23.33° C | 88% | 1015.8 hPa | 0 mm | - | 9 W/m² | - |
| 1778194755 | 23.33° C | 87% | 1015.9 hPa | 0 mm | - | 12 W/m² | - |
| 1778194452 | 23.33° C | 87% | 1015.7 hPa | 0 mm | - | 13 W/m² | - |
| 1778194148 | 23.89° C | 87% | 1015.9 hPa | 0 mm | - | 11 W/m² | - |
| 1778193844 | 23.89° C | 87% | 1015.8 hPa | 0 mm | - | 10 W/m² | - |
| 1778193541 | 23.89° C | 87% | 1015.8 hPa | 0 mm | - | 11 W/m² | - |
| 1778193236 | 23.89° C | 87% | 1015.9 hPa | 0 mm | - | 12 W/m² | - |
| 1778192934 | 23.89° C | 86% | 1015.9 hPa | 0 mm | - | 17 W/m² | - |
| 1778192630 | 23.89° C | 86% | 1015.8 hPa | 0 mm | - | 14 W/m² | - |
| 1778192327 | 23.89° C | 86% | 1015.7 hPa | 0 mm | - | 16 W/m² | - |
| 1778192024 | 23.89° C | 86% | 1015.7 hPa | 0 mm | - | 18 W/m² | - |
* Rain latest hour (hover to see other rain measurements)
** Current wind speed in m/s (hover to see current wind gust speed)